Location: Brno
(49.2000°N, 16.6330°E)
Time: 04:17:41
(UTC+01:00)

Meteor 1-4 Rocket - Visible Passes

Search period start: 18 February 2018 00:00
Search period end: 28 February 2018 00:00
Orbit: 452 x 507 km, 81.2° (Epoch: 17 February)

Date Brightness Start Highest point End Pass type
(mag) Time Alt. Az. Time Alt. Az. Time Alt. Az.
18 Feb 5.3 06:03:28 10° NNE 06:06:25 22° ENE 06:09:23 10° ESE visible
19 Feb 5.7 05:37:46 10° NNE 05:39:59 15° ENE 05:42:13 10° E visible
20 Feb 6.2 05:13:00 10° NE 05:13:30 10° ENE 05:13:59 10° ENE visible
22 Feb 4.3 05:53:02 10° N 05:56:34 38° ENE 06:00:07 10° SE visible
23 Feb 5.1 05:27:00 10° NNE 05:30:11 25° ENE 05:33:23 10° SE visible
23 Feb 4.6 19:14:31 10° S 19:15:09 15° S 19:15:09 15° S visible
23 Feb6.320:57:42N20:57:42N20:49:42WSWvisible
24 Feb 5.7 05:01:10 10° NNE 05:03:46 17° ENE 05:06:22 10° ESE visible
24 Feb 3.2 18:48:34 10° SSE 18:51:44 32° E 18:54:59 10° NNE visible
24 Feb 5.2 20:24:15 10° WSW 20:26:56 20° WNW 20:29:41 10° NNW visible
25 Feb 6.0 04:35:45 10° NE 04:37:17 12° ENE 04:38:49 10° E visible
25 Feb 2.6 06:09:07 10° NNW 06:12:52 69° W 06:16:38 10° S visible
25 Feb 3.8 18:22:54 10° SE 18:25:35 20° E 18:28:19 10° NE visible
25 Feb 4.4 19:57:21 10° SW 20:00:31 30° WNW 20:03:46 10° N visible
26 Feb 2.9 05:42:49 10° N 05:46:36 74° E 05:50:23 10° SSE visible
26 Feb 3.5 19:30:42 10° SSW 19:34:08 47° WNW 19:37:41 10° N visible
27 Feb 3.8 05:16:37 10° N 05:20:17 45° ENE 05:23:56 10° SSE visible
27 Feb 2.6 19:04:16 10° SSW 19:07:49 79° WNW 19:11:29 10° N visible
